Location: *
(23.7167°S, 88.8667°W)
Time: 12:38:27
(UTC+00:00)

Daily predictions for brighter satellites

Satellite Brightness Start Highest point End
(mag) Time Altitude Azimuth Time Altitude Azimuth Time Altitude Azimuth
PSLV R/B 4.4 12:00:28 10° S 12:04:18 37° WSW 12:08:08 10° NW
Cosmos 1455 Rocket 3.1 12:03:46 10° SSW 12:08:06 58° W 12:12:21 10° N
H-2A R/B 4.4 12:05:42 10° NW 12:08:12 16° W 12:10:43 10° SW
Lacrosse 4 Rocket 2.4 12:04:57 10° SW 12:08:54 31° WNW 12:12:52 10° N
Cosmos 2369 4.3 12:06:39 10° NW 12:11:46 34° WSW 12:16:56 10° S
Cosmos 1953 4.2 12:08:29 10° SSE 12:12:12 34° E 12:15:50 10° NNE
Cosmos 1805 3.6 23:40:26 10° N 23:44:18 72° W 23:48:13 10° S
H-2A R/B 3.0 23:45:41 10° S 23:49:31 72° WSW 23:53:14 10° NNW
ASTRO E2 2.7 23:47:12 10° WSW 23:51:14 81° SSE 23:55:14 10° ENE
Gbstr 26 Del rocket 4.3 23:48:34 10° SSW 23:54:17 35° SE 23:58:56 10° ENE
Longmarch 3A Rocket 3.0 23:39:33 10° WSW 23:55:31 90° SSE 23:58:53 10° ENE
Cosmos 1437 2.7 23:53:48 10° S 23:56:47 53° E 23:59:44 10° NNE
